When you browse on this site, cookies collect data to enhance your experience and personalize the content and advertising you see.
Visit our Privacy Policy to learn more. By continuing to use the site, you agree to this use of cookies and data.

Stündliche Wetter Zürich

Heute, 29 September, Dienstag

Zeit Temperatur Niederschläge Wind Luftdruck Luftfeuchtigkeit
00:00 +10°C° 0.3 mm 2 m/S 719 mmHg 94%
01:00 +10°C° 0.3 mm 2 m/S 719 mmHg 95%
02:00 +10°C° 0.7 mm 2 m/S 719 mmHg 95%
03:00 +10°C° 0.7 mm 2 m/S 719 mmHg 95%
04:00 +10°C° 0.7 mm 2 m/S 719 mmHg 96%
05:00 +10°C° 0.8 mm 2 m/S 719 mmHg 96%
06:00 +10°C° 0.8 mm 2 m/S 720 mmHg 96%
07:00 +10°C° 0.8 mm 2 m/S 720 mmHg 96%
08:00 +10°C° 0.7 mm 2 m/S 720 mmHg 96%
09:00 +10°C° 0.7 mm 2 m/S 720 mmHg 96%
10:00 +11°C° 0.7 mm 1 m/S 720 mmHg 95%
11:00 +11°C° 0.1 mm 1 m/S 721 mmHg 94%
12:00 +11°C° 0.1 mm 1 m/S 721 mmHg 93%
13:00 +12°C° 0.1 mm 1 m/S 721 mmHg 92%
14:00 +12°C° 0 mm 1 m/S 721 mmHg 92%
15:00 +11°C° 0 mm 0 m/S 721 mmHg 92%
16:00 +11°C° 0 mm 0 m/S 721 mmHg 92%
17:00 +10°C° 0 mm 0 m/S 721 mmHg 93%
18:00 +10°C° 0 mm 0 m/S 721 mmHg 94%
19:00 +9°C° 0 mm 0 m/S 721 mmHg 95%
20:00 +9°C° 0 mm 0 m/S 721 mmHg 95%
21:00 +9°C° 0 mm 0 m/S 721 mmHg 95%
22:00 +8°C° 0 mm 0 m/S 721 mmHg 95%
23:00 +8°C° 0 mm 0 m/S 720 mmHg 95%

Morgen, 30 September, Mittwoch

Zeit Temperatur Niederschläge Wind Luftdruck Luftfeuchtigkeit
00:00 +8°C° 0 mm 0 m/S 720 mmHg 95%
01:00 +8°C° 0 mm 0 m/S 720 mmHg 95%
02:00 +7°C° 0 mm 0 m/S 720 mmHg 95%
03:00 +7°C° 0 mm 0 m/S 719 mmHg 95%
04:00 +7°C° 0 mm 0 m/S 719 mmHg 95%
05:00 +7°C° 0 mm 0 m/S 719 mmHg 95%
06:00 +7°C° 0 mm 0 m/S 719 mmHg 95%
07:00 +8°C° 0 mm 0 m/S 719 mmHg 95%
08:00 +9°C° 0 mm 0 m/S 719 mmHg 91%
09:00 +11°C° 0 mm 0 m/S 719 mmHg 88%
10:00 +13°C° 0 mm 0 m/S 719 mmHg 84%
11:00 +15°C° 0 mm 1 m/S 718 mmHg 78%
12:00 +18°C° 0 mm 1 m/S 718 mmHg 72%
13:00 +19°C° 0 mm 1 m/S 718 mmHg 65%
14:00 +19°C° 0 mm 1 m/S 717 mmHg 66%
15:00 +19°C° 0 mm 1 m/S 717 mmHg 66%
16:00 +19°C° 0 mm 1 m/S 717 mmHg 66%
17:00 +16°C° 0 mm 1 m/S 716 mmHg 74%
18:00 +14°C° 0 mm 1 m/S 716 mmHg 82%
19:00 +11°C° 0 mm 0 m/S 716 mmHg 91%
20:00 +11°C° 0 mm 0 m/S 716 mmHg 91%
21:00 +11°C° 0 mm 1 m/S 716 mmHg 92%
22:00 +11°C° 0 mm 1 m/S 716 mmHg 92%
23:00 +11°C° 0 mm 1 m/S 715 mmHg 92%

übermorgen, 1 Oktober, Donnerstag

Zeit Temperatur Niederschläge Wind Luftdruck Luftfeuchtigkeit
00:00 +10°C° 0 mm 0 m/S 715 mmHg 92%
01:00 +10°C° 0 mm 0 m/S 715 mmHg 92%
02:00 +9°C° 0 mm 0 m/S 714 mmHg 92%
03:00 +9°C° 0 mm 0 m/S 714 mmHg 92%
04:00 +9°C° 0 mm 0 m/S 713 mmHg 92%
05:00 +9°C° 0 mm 0 m/S 713 mmHg 91%
06:00 +9°C° 0 mm 0 m/S 713 mmHg 91%
07:00 +9°C° 0 mm 0 m/S 713 mmHg 91%
08:00 +11°C° 0 mm 0 m/S 712 mmHg 84%
09:00 +13°C° 0 mm 0 m/S 712 mmHg 78%
10:00 +16°C° 0 mm 0 m/S 712 mmHg 71%
11:00 +17°C° 0 mm 0 m/S 712 mmHg 66%
12:00 +18°C° 0 mm 0 m/S 712 mmHg 61%
13:00 +22°C° 0 mm 1 m/S 712 mmHg 56%
14:00 +21°C° 0.1 mm 1 m/S 712 mmHg 61%
15:00 +19°C° 0.1 mm 2 m/S 712 mmHg 66%
16:00 +18°C° 0.1 mm 2 m/S 711 mmHg 71%
17:00 +16°C° 0.3 mm 2 m/S 711 mmHg 76%
18:00 +15°C° 0.3 mm 1 m/S 711 mmHg 81%
19:00 +13°C° 0.3 mm 1 m/S 711 mmHg 87%
20:00 +12°C° 0.3 mm 0 m/S 711 mmHg 89%
21:00 +12°C° 0.3 mm 0 m/S 711 mmHg 92%
22:00 +11°C° 0.3 mm 0 m/S 711 mmHg 95%
23:00 +11°C° 0.5 mm 0 m/S 711 mmHg 95%

2 Oktober, Freitag

Zeit Temperatur Niederschläge Wind Luftdruck Luftfeuchtigkeit
00:00 +11°C° 0.5 mm 0 m/S 710 mmHg 96%
01:00 +12°C° 0.5 mm 1 m/S 710 mmHg 97%
02:00 +12°C° 0 mm 1 m/S 709 mmHg 97%
03:00 +11°C° 0 mm 1 m/S 709 mmHg 97%
04:00 +11°C° 0 mm 1 m/S 708 mmHg 97%
05:00 +11°C° 0 mm 1 m/S 707 mmHg 97%
06:00 +10°C° 0 mm 1 m/S 707 mmHg 97%
07:00 +10°C° 0 mm 1 m/S 706 mmHg 97%
08:00 +11°C° 0 mm 1 m/S 706 mmHg 93%
09:00 +13°C° 0 mm 1 m/S 706 mmHg 90%
10:00 +14°C° 0 mm 1 m/S 705 mmHg 87%
11:00 +15°C° 0 mm 1 m/S 705 mmHg 81%
12:00 +18°C° 0 mm 1 m/S 705 mmHg 75%
13:00 +19°C° 0 mm 1 m/S 705 mmHg 69%
14:00 +18°C° 0 mm 2 m/S 705 mmHg 71%
15:00 +18°C° 0 mm 2 m/S 704 mmHg 72%
16:00 +18°C° 0 mm 2 m/S 704 mmHg 73%
17:00 +17°C° 0 mm 2 m/S 703 mmHg 76%
18:00 +16°C° 0 mm 2 m/S 703 mmHg 78%
19:00 +15°C° 0 mm 2 m/S 703 mmHg 80%
20:00 +14°C° 0 mm 2 m/S 702 mmHg 81%
21:00 +14°C° 0 mm 2 m/S 702 mmHg 81%
22:00 +13°C° 0 mm 2 m/S 702 mmHg 81%
23:00 +13°C° 0 mm 2 m/S 702 mmHg 81%

3 Oktober, Samstag

Zeit Temperatur Niederschläge Wind Luftdruck Luftfeuchtigkeit
00:00 +13°C° 0 mm 2 m/S 702 mmHg 82%
01:00 +13°C° 0 mm 1 m/S 701 mmHg 82%
02:00 +12°C° 0 mm 2 m/S 701 mmHg 85%
03:00 +12°C° 0 mm 2 m/S 702 mmHg 87%
04:00 +10°C° 0 mm 2 m/S 702 mmHg 90%
05:00 +10°C° 0.1 mm 2 m/S 702 mmHg 90%
06:00 +10°C° 0.1 mm 2 m/S 703 mmHg 90%
07:00 +9°C° 0.1 mm 2 m/S 703 mmHg 90%
08:00 +9°C° 1.4 mm 2 m/S 704 mmHg 90%
09:00 +8°C° 1.4 mm 3 m/S 705 mmHg 91%
10:00 +8°C° 1.4 mm 3 m/S 705 mmHg 92%
11:00 +8°C° 1.8 mm 3 m/S 706 mmHg 92%
12:00 +8°C° 1.8 mm 3 m/S 707 mmHg 92%
13:00 +8°C° 1.8 mm 2 m/S 708 mmHg 91%
14:00 +9°C° 0.4 mm 2 m/S 707 mmHg 90%
15:00 +9°C° 0.4 mm 2 m/S 707 mmHg 88%
16:00 +9°C° 0.4 mm 2 m/S 707 mmHg 86%
17:00 +10°C° 0 mm 1 m/S 707 mmHg 88%
18:00 +9°C° 0 mm 1 m/S 707 mmHg 91%
19:00 +8°C° 0 mm 1 m/S 707 mmHg 93%
20:00 +8°C° 0 mm 1 m/S 708 mmHg 94%
21:00 +7°C° 0 mm 1 m/S 708 mmHg 94%
22:00 +7°C° 0 mm 1 m/S 708 mmHg 95%
23:00 +7°C° 0 mm 1 m/S 708 mmHg 95%

4 Oktober, Sonntag

Zeit Temperatur Niederschläge Wind Luftdruck Luftfeuchtigkeit
00:00 +6°C° 0 mm 1 m/S 708 mmHg 95%
01:00 +6°C° 0 mm 1 m/S 708 mmHg 95%
02:00 +5°C° 0 mm 0 m/S 707 mmHg 95%
03:00 +5°C° 0 mm 0 m/S 707 mmHg 95%
04:00 +5°C° 0 mm 0 m/S 706 mmHg 95%
05:00 +5°C° 0 mm 0 m/S 707 mmHg 95%
06:00 +6°C° 0 mm 0 m/S 707 mmHg 94%
07:00 +7°C° 0 mm 1 m/S 707 mmHg 94%
08:00 +9°C° 0 mm 1 m/S 707 mmHg 87%
09:00 +10°C° 0 mm 1 m/S 707 mmHg 81%
10:00 +12°C° 0 mm 2 m/S 708 mmHg 75%
11:00 +13°C° 0 mm 2 m/S 708 mmHg 71%
12:00 +15°C° 0 mm 2 m/S 708 mmHg 66%
13:00 +16°C° 0 mm 3 m/S 709 mmHg 61%
14:00 +14°C° 0.2 mm 3 m/S 709 mmHg 67%
15:00 +13°C° 0.2 mm 3 m/S 709 mmHg 73%
16:00 +12°C° 0.2 mm 3 m/S 709 mmHg 79%
17:00 +12°C° 1 mm 2 m/S 710 mmHg 84%
18:00 +11°C° 1 mm 1 m/S 710 mmHg 90%
19:00 +10°C° 1 mm 1 m/S 710 mmHg 95%
20:00 +10°C° 0.4 mm 1 m/S 711 mmHg 95%
21:00 +10°C° 0.4 mm 1 m/S 711 mmHg 95%
22:00 +10°C° 0.4 mm 1 m/S 711 mmHg 95%
23:00 +10°C° 0.4 mm 1 m/S 711 mmHg 95%
Mehr zeigen